Flag for Sweden Weather past 2 weeks in Halmstad, Sweden

Now
32 °F

Chilly.


Feels Like: 27 °F
Forecast: 37 / 49 °F
Wind: 5 mph from Northeast

Location: Halmstad Swedish Air Force Base

Current Time: Apr 27, 2015 at 6:12:30 AM

Latest Report: Apr 27, 2015 at 5:20 AM


Visibility: N/A

Pressure: 29.68 "Hg

Humidity: 93%

Dew point: 30 °F

Location of HalmstadLocation

Historic Weather in Halmstad — Graph

°F

Halmstad temperature yesterday

Maximum temperature yesterday: 50 °F (at 12:20 AM)
Minimum temperature yesterday: 37 °F (at 10:50 PM)
Average temperature yesterday: 45 °F

Past Weeks' High & Low Weather Summary

 TemperatureHumidityPressure
High61 °F (Apr 20, 3:20 PM)100% (Apr 22, 7:20 AM)30.30 "Hg (Apr 22, 7:20 AM)
Low32 °F (Apr 18, 6:20 AM)29% (Apr 21, 11:50 AM)29.59 "Hg (Apr 15, 4:20 PM)
Average46 °F75%29.96 "Hg
* Reported Apr 12 4:20 AM — Apr 27 4:20 AM, Halmstad, Weather by CustomWeather, © 2015

Note: Actual official high and low records may vary slightly from our data, if they occured in-between our weather recording intervals... More about our weather records

Advertising

Halmstad weather history for previous 24 hours

 ConditionsComfort  
Time TempWeatherWind HumidityBarometerVisibility
4:20 AM
Mon, Apr 27
32 °FChilly.3 mph93%29.68 "Hg6 mi
3:50 AM34 °FFog.3 mph93%29.68 "Hg5 mi
3:20 AM32 °FChilly.No wind93%29.71 "Hg4 mi
2:50 AM36 °FPassing clouds.2 mph93%29.68 "HgN/A
2:20 AM34 °FPassing clouds.1 mph93%29.71 "HgN/A
1:50 AM36 °FChilly.No wind87%29.71 "HgN/A
1:20 AM37 °FChilly.3 mph87%29.71 "Hg3 mi
12:50 AM39 °FChilly.No wind87%29.71 "HgN/A
12:20 AM39 °FChilly.1 mph87%29.71 "HgN/A
11:50 PM
Sun, Apr 26
39 °FChilly.3 mph87%29.71 "HgN/A
11:20 PM37 °FChilly.2 mph87%29.71 "HgN/A
10:50 PM37 °FChilly.No wind87%29.71 "HgN/A
10:20 PM39 °FChilly.1 mph81%29.71 "HgN/A
9:50 PM39 °FChilly.2 mph81%29.71 "HgN/A
9:20 PM41 °FQuite cool.3 mph81%29.71 "HgN/A
8:50 PM41 °FSunny.6 mph81%29.71 "Hg10 mi
8:20 PM43 °FSunny.6 mph76%29.71 "Hg10 mi
7:50 PM43 °FSunny.8 mph76%29.71 "Hg10 mi
7:20 PM43 °FSunny.8 mph76%29.71 "Hg10 mi
6:50 PM45 °FSunny.8 mph71%29.71 "Hg10 mi
6:20 PM46 °FPassing clouds.6 mph57%29.71 "HgN/A
5:50 PM46 °FPassing clouds.6 mph57%29.71 "HgN/A
5:20 PM46 °FPassing clouds.3 mph53%29.71 "HgN/A
4:50 PM45 °FScattered clouds.2 mph61%29.71 "HgN/A
4:20 PM45 °FLight rain. Scattered clouds.9 mph53%29.71 "HgN/A
3:50 PM46 °FScattered clouds.8 mph66%29.71 "HgN/A
3:20 PM46 °FScattered clouds.8 mph66%29.71 "HgN/A
2:50 PM46 °FScattered clouds.9 mph71%29.71 "HgN/A
2:20 PM46 °FPartly sunny.9 mph66%29.71 "HgN/A
1:50 PM48 °FOvercast.10 mph62%29.71 "HgN/A
1:20 PM48 °FPartly sunny.10 mph66%29.71 "HgN/A
12:50 PM48 °FPartly sunny.8 mph62%29.71 "HgN/A
12:20 PM48 °FBroken clouds.8 mph66%29.68 "HgN/A
11:50 AM48 °FBroken clouds.8 mph62%29.71 "HgN/A
11:20 AM48 °FBroken clouds.9 mph71%29.71 "HgN/A
10:50 AM48 °FBroken clouds.6 mph71%29.68 "HgN/A
10:20 AM45 °FOvercast.2 mph76%29.68 "HgN/A
9:50 AM45 °FLight rain. Broken clouds.7 mph81%29.68 "HgN/A
9:20 AM45 °FDrizzle. Broken clouds.5 mph81%29.68 "HgN/A
8:50 AM45 °FOvercast.3 mph87%29.68 "HgN/A
8:20 AM43 °FDrizzle. Partly sunny.7 mph87%29.68 "Hg4 mi
7:50 AM43 °FDrizzle. Low clouds.9 mph87%29.68 "Hg4 mi
7:20 AM45 °FFog.7 mph87%29.65 "Hg3 mi
6:50 AM45 °FOvercast.8 mph87%29.65 "HgN/A
6:20 AM45 °FLow clouds.9 mph87%29.65 "HgN/A
Weather by CustomWeather, © 2015

See weather overviewHow to use our weather pages